sat.trackr.live / text

‹ back to catalog

IRIDIUM 149

NORAD 43250 · 2018-030B

PAYLOAD ACTIVE UNKNOWN

§ Identity

Operator
Country
US
Launch date
2018-03-30
Launch site
AFWTR
Launch vehicle
Mass (kg)
RCS (m²)

Purposes: comms

External: N2YO · Heavens-Above · Gunter

§ Orbital elements

Epoch: 2026-05-24T22:25:19.396992Z

Period
100.40 min
Inclination
86.3938°
Eccentricity
0.0002189
Mean motion
14.34218061 rev/d
Perigee alt
776.1 km
Apogee alt
779.2 km
Semi-major
7,155.8 km
B*
2.1403e-5
RAAN
300.0939°
Arg perigee
93.8302°
Mean anomaly
266.3144°
Rev number
42,682

§ Raw data

IRIDIUM 1491 43250U 18030B   26144.93425228  .00000080  00000+0  21403-4 0  99992 43250  86.3938 300.0939 0002189  93.8302 266.3144 14.34218061426820

JSON: /api/v1/satellites/43250 · /tle

For live sub-satellite position, see the globe view (requires WebGL).

§ Visibility from observer

Set your observer location to see the next 7 days of passes ≥ 10°. The values pass through the URL so the page stays shareable.

No JS? Fill the form by hand. The geolocation button needs JavaScript.